SRQ6064 RPVM-RPVV

Flight info

Callsign SRQ6064
Flight time N/A
Altitude 16000
Route PARAO4P PARAO W6A ROX DCT CT
Aircraft AT76/M-SDFGIRY/S

Departure

Time N/A
Airport Mactan Cebu International Airport (RPVM)

Arrival

Time 2026-05-04 08:35
Airport Francisco B. Reyes (Busuanga) Airport (RPVV)
Time Latitude Longitude Altitude Speed Heading
2026-05-04 08:08 11.93544 121.92716 15865 ft 267 kts 283°
2026-05-04 08:08 11.93907 121.90860 15860 ft 266 kts 281°
2026-05-04 08:10 11.96348 121.75939 15866 ft 266 kts 279°
2026-05-04 08:11 11.96647 121.74073 15869 ft 266 kts 279°
2026-05-04 08:11 11.97246 121.70342 15854 ft 266 kts 279°
2026-05-04 08:11 11.97546 121.68471 15860 ft 266 kts 279°
2026-05-04 08:12 11.97844 121.66606 15868 ft 266 kts 279°
2026-05-04 08:12 11.98144 121.64738 15867 ft 266 kts 279°
2026-05-04 08:12 11.98444 121.62871 15867 ft 266 kts 279°
2026-05-04 08:12 11.98740 121.61028 15865 ft 266 kts 279°
2026-05-04 08:13 11.99045 121.59137 15862 ft 266 kts 279°
2026-05-04 08:13 11.99347 121.57270 15868 ft 266 kts 279°
2026-05-04 08:13 11.99646 121.55423 15864 ft 267 kts 279°
2026-05-04 08:13 11.99951 121.53532 15867 ft 266 kts 279°
2026-05-04 08:14 12.00248 121.51689 15867 ft 267 kts 279°
2026-05-04 08:14 12.00550 121.49821 15868 ft 267 kts 279°
2026-05-04 08:14 12.00851 121.47951 15868 ft 267 kts 279°
2026-05-04 08:16 12.02954 121.34811 15859 ft 269 kts 279°
2026-05-04 08:16 12.03257 121.32926 15861 ft 268 kts 280°
2026-05-04 08:16 12.03557 121.31046 15863 ft 268 kts 279°
2026-05-04 08:17 12.03857 121.29165 15860 ft 268 kts 279°
2026-05-04 08:17 12.04158 121.27285 15862 ft 268 kts 279°
2026-05-04 08:17 12.04457 121.25428 15861 ft 268 kts 279°
2026-05-04 08:17 12.04758 121.23548 15860 ft 268 kts 279°
2026-05-04 08:19 12.06871 121.10381 15858 ft 268 kts 279°
2026-05-04 08:19 12.07171 121.08503 15859 ft 268 kts 279°
2026-05-04 08:20 12.07470 121.06625 15848 ft 267 kts 279°
2026-05-04 08:20 12.07767 121.04754 15859 ft 267 kts 279°
2026-05-04 08:20 12.08059 121.02907 15860 ft 267 kts 279°
2026-05-04 08:20 12.08326 121.01036 15861 ft 266 kts 278°
2026-05-04 08:21 12.08575 120.99161 15846 ft 266 kts 278°
2026-05-04 08:21 12.08815 120.97288 15860 ft 266 kts 278°
2026-05-04 08:21 12.09051 120.95415 15846 ft 266 kts 278°
2026-05-04 08:21 12.09287 120.93545 15859 ft 265 kts 278°
2026-05-04 08:22 12.09523 120.91675 15858 ft 265 kts 278°
2026-05-04 08:22 12.09759 120.89806 15862 ft 265 kts 278°
2026-05-04 08:24 12.11460 120.76396 15003 ft 294 kts 278°
2026-05-04 08:24 12.11725 120.74327 14890 ft 293 kts 278°
2026-05-04 08:24 12.11988 120.72257 14764 ft 293 kts 278°
2026-05-04 08:24 12.12249 120.70200 14665 ft 292 kts 278°
2026-05-04 08:25 12.12511 120.68140 14525 ft 292 kts 278°
2026-05-04 08:25 12.12773 120.66079 14215 ft 300 kts 278°
2026-05-04 08:25 12.13046 120.63938 13786 ft 309 kts 278°
2026-05-04 08:25 12.13327 120.61733 13297 ft 316 kts 278°
2026-05-04 08:26 12.13610 120.59491 12839 ft 318 kts 278°
2026-05-04 08:27 12.12973 120.45104 8818 ft 278 kts 266°
2026-05-04 08:28 12.12818 120.43136 8172 ft 276 kts 266°
2026-05-04 08:28 12.12670 120.41187 7549 ft 274 kts 266°
2026-05-04 08:28 12.12529 120.39252 6936 ft 272 kts 266°
2026-05-04 08:28 12.12395 120.37330 6341 ft 270 kts 266°
2026-05-04 08:29 12.12266 120.35418 5709 ft 269 kts 266°
2026-05-04 08:29 12.12143 120.33522 5085 ft 265 kts 266°
2026-05-04 08:29 12.12033 120.31693 4566 ft 250 kts 267°
2026-05-04 08:31 12.13424 120.20488 2024 ft 197 kts 288°
2026-05-04 08:33 12.12520 120.13432 1227 ft 145 kts 261°
2026-05-04 08:33 12.12422 120.12409 759 ft 144 kts 264°
2026-05-04 08:35 12.12155 120.09701 180 ft 6 kts 83°
2026-05-04 08:35 12.12146 120.09751 179 ft 12 kts 124°
2026-05-04 08:35 12.12097 120.09810 180 ft 10 kts 126°
2026-05-04 08:35 12.12093 120.09879 181 ft 5 kts 83°
2026-05-04 08:37 12.12041 120.09915 182 ft 0 kts 174°